{"data":{"norad_id":66378,"intl_designator":"2025-255C","name":"SHIYAN-32 02","alt_names":[],"object_type":"PAYLOAD","status":"ACTIVE","operator":null,"country":"PRC","launch_date":"2025-11-08","launch_site_code":"YSLA","launch_vehicle":null,"mission":null,"orbit_class":"UNKNOWN","rcs_meters":null,"size_class":null,"mass_kg":null,"dimensions":null,"purposes":[],"wikipedia_slug":null,"has_3d_model":false,"image_url":null,"decayed_at":null,"tle_current":{"epoch":"2026-09-20T21:28:10.887744Z","epoch_age_seconds":97305,"freshness":"FRESH","line1":"1 66378U 25255C   26263.89457046  .00008465  00000+0  20490-3 0  9991","line2":"2 66378  52.9919 280.1555 0016149 154.0635 206.1181 15.41886947 48721","mean_motion":15.41886947,"eccentricity":0.0016149,"inclination_deg":52.9919,"raan_deg":280.1555,"arg_perigee_deg":154.0635,"mean_anomaly_deg":206.1181,"bstar":0.0002049,"rev_number":4872,"period_min":93.392061123662,"perigee_km":429.52906632284,"apogee_km":451.55203106962,"semimajor_km":6818.6775486962,"source":"CELESTRAK","updated_at":"2026-09-21T09:00:15.949923Z"}}}